Location: Unspecified
(39.0670°S, 0.0000°E)
Time: 20:14:50
(UTC+00:00)

Envisat - Pass Details

Date: 02 July 2019
Orbit: 764 x 766 km, 98.1° (Epoch: 22 July)

Event Time Altitude Azimuth Distance (km) Brightness Sun altitude
Exits shadow 18:37:21 30° 58° (ENE) 1,367 3.9 -20.5°
Drops below altitude 10° 18:40:46 10° 20° (NNE) 2,308 5.4 -21.1°
Sets 18:43:16 0° 10° (N) 3,225 6.3 -21.6°
